Rock Springs, WY

9:35 PM MDT on April 21, 2018 (GMT -0600)
Rock Springs-Sweetwater

Weather History for KRKS - August, 2013

Change the Weather History Date:

Friday, August 2, 2013

  Actual Average Record
Temperature  
Mean Temperature 71 °F 70 °F  
Max Temperature 85 °F 85 °F 93 °F (1954)
Min Temperature 57 °F 55 °F 43 °F (1975)
Degree Days  
Heating Degree Days 0 0  
Month to date heating degree days 0 0  
Since 1 June heating degree days 62 191  
Since 1 July heating degree days 0 24  
Cooling Degree Days 6 5  
Month to date cooling degree days 13 10  
Year to date cooling degree days 331 190  
Since 1 June cooling degree days 330 189  
Growing Degree Days 20 (Base 50)    
Moisture  
Dew Point 34 °F    
Average Humidity 39    
Maximum Humidity 67    
Minimum Humidity 11    
Precipitation  
Precipitation 0.00 in 0.02 in 1.17 in (2007)
Month to date precipitation T 0.04  
Year to date precipitation 1.70 5.20  
Sea Level Pressure  
Sea Level Pressure 29.90 in    
Wind  
Wind Speed 9 mph (WSW)    
Max Wind Speed 23 mph    
Max Gust Speed 36 mph    
Visibility 10 miles    
Events      
T = Trace of Precipitation, MM = Missing Value Source: NWS Daily Summary

Daily Weather History Graph

Daily Weather History Graph

Search for Another Location

Airport or City:

Astronomy

Aug. 02, 2013 Rise Set
Actual Time 6:12 AM MDT 8:32 PM MDT
Civil Twilight 5:40 AM MDT 9:03 PM MDT
Nautical Twilight 5:02 AM MDT 9:41 PM MDT
Astronomical Twilight 4:19 AM MDT 10:24 PM MDT
Moon 2:35 AM MDT (8/2) 5:33 PM MDT (8/2)
Length of Visible Light 15h 22m
Length of Day
14h 20m
Waning Crescent, 15% of the Moon is Illuminated
Aug 2
Waning Crescent
Aug 6
New
Aug 14
First Quarter
Aug 20
Full
Aug 28
Last Quarter

Hourly Weather History & Observations

Time (MDT) Temp. Dew Point Humidity Pressure Visibility Wind Dir Wind Speed Gust Speed Precip Events Conditions
12:01 AM 62.6 °F 48.2 °F 59% 30.09 in 10.0 mi SSE 16.1 mph - N/A   Clear
12:54 AM 62.1 °F 48.0 °F 60% 29.79 in 10.0 mi SSE 18.4 mph - N/A   Clear
1:54 AM 61.0 °F 46.9 °F 60% 29.81 in 10.0 mi WSW 4.6 mph - N/A   Clear
2:54 AM 60.1 °F 46.0 °F 60% 29.81 in 10.0 mi WSW 8.1 mph - N/A   Clear
3:54 AM 62.1 °F 46.0 °F 56% 29.84 in 10.0 mi SW 11.5 mph - N/A   Clear
4:54 AM 61.0 °F 46.0 °F 58% 29.87 in 10.0 mi WSW 8.1 mph - N/A   Clear
5:54 AM 60.1 °F 46.0 °F 60% 29.90 in 10.0 mi SSW 11.5 mph - N/A   Clear
6:54 AM 57.0 °F 46.0 °F 67% 29.92 in 10.0 mi SW 12.7 mph - N/A   Clear
7:54 AM 62.1 °F 46.0 °F 56% 29.94 in 10.0 mi WSW 10.4 mph - N/A   Clear
8:54 AM 66.0 °F 46.0 °F 48% 29.95 in 10.0 mi WSW 5.8 mph - N/A   Clear
9:54 AM 71.1 °F 39.9 °F 32% 29.95 in 10.0 mi WNW 6.9 mph - N/A   Clear
10:54 AM 73.0 °F 37.0 °F 27% 29.95 in 10.0 mi Variable 5.8 mph - N/A   Clear
11:54 AM 75.9 °F 33.1 °F 21% 29.93 in 10.0 mi Variable 5.8 mph - N/A   Clear
12:54 PM 79.0 °F 28.0 °F 15% 29.91 in 10.0 mi West 8.1 mph 20.7 mph N/A   Clear
1:39 PM 82.4 °F 21.2 °F 10% 30.16 in 10.0 mi WNW 17.3 mph 27.6 mph N/A   Clear
1:54 PM 82.0 °F 25.0 °F 12% 29.89 in 10.0 mi West 17.3 mph 29.9 mph N/A   Clear
2:54 PM 82.9 °F 28.0 °F 14% 29.87 in 10.0 mi West 15.0 mph 35.7 mph N/A   Clear
3:54 PM 84.0 °F 30.0 °F 14% 29.84 in 10.0 mi West 13.8 mph 19.6 mph N/A   Clear
4:54 PM 84.0 °F 28.0 °F 13% 29.83 in 10.0 mi West 16.1 mph 28.8 mph N/A   Clear
5:54 PM 84.0 °F 27.0 °F 13% 29.83 in 10.0 mi WNW 13.8 mph 19.6 mph N/A   Clear
6:54 PM 82.0 °F 25.0 °F 12% 29.85 in 10.0 mi WSW 5.8 mph 17.3 mph N/A   Clear
7:54 PM 80.1 °F 23.0 °F 12% 29.85 in 10.0 mi West 8.1 mph - N/A   Clear
8:54 PM 75.0 °F 18.0 °F 12% 29.87 in 10.0 mi WNW 9.2 mph - N/A   Clear
9:54 PM 73.0 °F 19.9 °F 14% 29.89 in 10.0 mi WNW 10.4 mph - N/A   Clear
10:54 PM 70.0 °F 23.0 °F 17% 29.91 in 10.0 mi WNW 4.6 mph - N/A   Clear
11:54 PM 68.0 °F 19.9 °F 16% 29.92 in 10.0 mi South 4.6 mph - N/A   Clear